FLE7631 CYKF-KCLE

Flight info

Callsign FLE7631
Flight time 0h 31m
Altitude 22000
Route GGUCE DCT DOZRR BRWNZ4
Aircraft B38M/M-SDE1FGHILORVWXY/HB1

Departure

Time 2026-05-09 03:01
Airport Region of Waterloo International Airport (CYKF)

Arrival

Time 2026-05-09 03:32
Airport Cleveland Hopkins International Airport (KCLE)
Time Latitude Longitude Altitude Speed Heading
2026-05-09 02:46 43.45611 -80.38462 1035 ft 0 kts 220°
2026-05-09 02:50 43.45622 -80.38448 1034 ft 2 kts 231°
2026-05-09 02:50 43.45631 -80.38421 1033 ft 2 kts 264°
2026-05-09 02:50 43.45631 -80.38406 1033 ft 2 kts 287°
2026-05-09 02:51 43.45624 -80.38386 1033 ft 2 kts 306°
2026-05-09 02:51 43.45621 -80.38381 1033 ft 0 kts 308°
2026-05-09 02:53 43.45622 -80.38383 1033 ft 2 kts 308°
2026-05-09 02:53 43.45640 -80.38414 1033 ft 7 kts 308°
2026-05-09 02:53 43.45672 -80.38471 1034 ft 8 kts 308°
2026-05-09 02:53 43.45701 -80.38522 1035 ft 5 kts 308°
2026-05-09 02:54 43.45723 -80.38562 1036 ft 6 kts 309°
2026-05-09 02:54 43.45765 -80.38555 1036 ft 8 kts 41°
2026-05-09 02:54 43.45803 -80.38470 1036 ft 12 kts 63°
2026-05-09 02:54 43.45846 -80.38339 1033 ft 18 kts 66°
2026-05-09 02:55 43.45907 -80.38159 1029 ft 23 kts 65°
2026-05-09 02:55 43.45979 -80.37944 1028 ft 26 kts 65°
2026-05-09 02:55 43.46058 -80.37707 1034 ft 28 kts 65°
2026-05-09 02:55 43.46138 -80.37473 1036 ft 28 kts 67°
2026-05-09 02:56 43.46214 -80.37247 1034 ft 27 kts 65°
2026-05-09 02:56 43.46289 -80.37021 1034 ft 18 kts 66°
2026-05-09 02:56 43.46346 -80.36849 1033 ft 18 kts 65°
2026-05-09 02:56 43.46399 -80.36690 1037 ft 14 kts 65°
2026-05-09 02:57 43.46452 -80.36587 1038 ft 12 kts 27°
2026-05-09 02:57 43.46488 -80.36569 1037 ft 0 kts 16°
2026-05-09 02:59 43.46489 -80.36569 1037 ft 0 kts 16°
2026-05-09 02:59 43.46509 -80.36562 1037 ft 6 kts 11°
2026-05-09 03:00 43.46581 -80.36597 1033 ft 13 kts 302°
2026-05-09 03:00 43.46547 -80.36745 1028 ft 32 kts 246°
2026-05-09 03:00 43.46292 -80.37497 1034 ft 137 kts 245°
2026-05-09 03:00 43.45800 -80.38971 1528 ft 190 kts 243°
2026-05-09 03:01 43.45207 -80.40492 2450 ft 164 kts 231°
2026-05-09 03:01 43.44320 -80.41486 2817 ft 175 kts 200°
2026-05-09 03:01 43.43053 -80.41717 3027 ft 205 kts 180°
2026-05-09 03:01 43.41556 -80.41882 4045 ft 225 kts 197°
2026-05-09 03:02 43.40143 -80.42907 5331 ft 237 kts 211°
2026-05-09 03:02 43.38622 -80.43985 6525 ft 254 kts 209°
2026-05-09 03:02 43.37011 -80.45088 7876 ft 260 kts 210°
2026-05-09 03:02 43.35384 -80.46192 9353 ft 263 kts 211°
2026-05-09 03:03 43.33727 -80.47309 10615 ft 271 kts 212°
2026-05-09 03:03 43.31973 -80.48485 11513 ft 291 kts 211°
2026-05-09 03:03 43.30104 -80.49733 12434 ft 306 kts 211°
2026-05-09 03:03 43.28150 -80.51037 13428 ft 318 kts 211°
2026-05-09 03:04 43.26145 -80.52376 14469 ft 323 kts 211°
2026-05-09 03:04 43.24113 -80.53733 15533 ft 327 kts 211°
2026-05-09 03:04 43.22057 -80.55106 16574 ft 330 kts 211°
2026-05-09 03:04 43.19977 -80.56493 17567 ft 336 kts 212°
2026-05-09 03:05 43.17859 -80.57905 18477 ft 341 kts 212°
2026-05-09 03:05 43.15715 -80.59334 19322 ft 345 kts 212°
2026-05-09 03:05 43.13540 -80.60782 20151 ft 349 kts 212°
2026-05-09 03:05 43.11341 -80.62244 20959 ft 354 kts 213°
2026-05-09 03:06 43.09108 -80.63728 21651 ft 361 kts 213°
2026-05-09 03:06 43.06838 -80.65234 21816 ft 365 kts 213°
2026-05-09 03:06 43.04505 -80.66782 21804 ft 381 kts 213°
2026-05-09 03:06 43.02095 -80.68376 21835 ft 388 kts 213°
2026-05-09 03:07 42.99655 -80.69991 21850 ft 391 kts 212°
2026-05-09 03:07 42.97203 -80.71613 21875 ft 392 kts 212°
2026-05-09 03:07 42.94747 -80.73237 21880 ft 392 kts 212°
2026-05-09 03:07 42.92292 -80.74859 21882 ft 392 kts 212°
2026-05-09 03:08 42.89834 -80.76482 21882 ft 392 kts 212°
2026-05-09 03:08 42.87379 -80.78102 21879 ft 392 kts 212°
2026-05-09 03:08 42.84958 -80.79696 21849 ft 392 kts 212°
2026-05-09 03:08 42.82474 -80.81332 21872 ft 391 kts 212°
2026-05-09 03:09 42.80024 -80.82945 21880 ft 391 kts 212°
2026-05-09 03:09 42.77575 -80.84555 21885 ft 391 kts 212°
2026-05-09 03:09 42.75127 -80.86162 21888 ft 391 kts 212°
2026-05-09 03:09 42.72716 -80.87758 21881 ft 389 kts 214°
2026-05-09 03:10 42.70575 -80.89947 21877 ft 375 kts 232°
2026-05-09 03:10 42.68966 -80.92710 21877 ft 372 kts 237°
2026-05-09 03:10 42.67417 -80.95526 21874 ft 372 kts 238°
2026-05-09 03:10 42.65892 -80.98366 21858 ft 372 kts 238°
2026-05-09 03:11 42.64399 -81.01180 21883 ft 372 kts 238°
2026-05-09 03:11 42.62897 -81.04033 21880 ft 371 kts 239°
2026-05-09 03:11 42.61398 -81.06892 21876 ft 371 kts 239°
2026-05-09 03:11 42.59902 -81.09748 21876 ft 371 kts 239°
2026-05-09 03:12 42.58404 -81.12606 21874 ft 371 kts 239°
2026-05-09 03:12 42.56906 -81.15464 21873 ft 371 kts 239°
2026-05-09 03:12 42.55429 -81.18274 21191 ft 366 kts 238°
2026-05-09 03:12 42.53698 -81.20845 20416 ft 373 kts 225°
2026-05-09 03:13 42.49097 -81.24081 19590 ft 367 kts 208°
2026-05-09 03:13 42.46764 -81.25375 19330 ft 356 kts 209°
2026-05-09 03:13 42.44502 -81.26640 19037 ft 348 kts 209°
2026-05-09 03:14 42.42282 -81.27886 18617 ft 343 kts 209°
2026-05-09 03:14 42.40091 -81.29119 17830 ft 342 kts 208°
2026-05-09 03:14 42.37893 -81.30358 17305 ft 341 kts 208°
2026-05-09 03:14 42.35722 -81.31579 16862 ft 336 kts 208°
2026-05-09 03:15 42.33567 -81.32792 16362 ft 334 kts 208°
2026-05-09 03:15 42.31414 -81.33969 15859 ft 334 kts 205°
2026-05-09 03:15 42.29216 -81.34962 15381 ft 332 kts 204°
2026-05-09 03:15 42.27035 -81.35959 14907 ft 329 kts 204°
2026-05-09 03:16 42.24890 -81.36947 14325 ft 325 kts 204°
2026-05-09 03:16 42.22755 -81.37935 13709 ft 322 kts 204°
2026-05-09 03:16 42.20646 -81.38913 13012 ft 319 kts 204°
2026-05-09 03:16 42.18558 -81.39882 12380 ft 316 kts 204°
2026-05-09 03:17 42.16490 -81.40841 11723 ft 313 kts 204°
2026-05-09 03:17 42.14439 -81.41791 11139 ft 312 kts 204°
2026-05-09 03:17 42.12400 -81.42735 10824 ft 305 kts 204°
2026-05-09 03:17 42.10422 -81.43650 10621 ft 296 kts 204°
2026-05-09 03:18 42.08499 -81.44515 10424 ft 288 kts 199°
2026-05-09 03:18 42.06518 -81.44725 10286 ft 285 kts 182°
2026-05-09 03:18 42.04568 -81.44545 10169 ft 276 kts 181°
2026-05-09 03:18 42.02685 -81.44346 10000 ft 268 kts 181°
2026-05-09 03:19 42.00862 -81.44022 9856 ft 265 kts 169°
2026-05-09 03:19 41.99150 -81.43071 9532 ft 268 kts 160°
2026-05-09 03:19 41.97482 -81.41963 9222 ft 267 kts 159°
2026-05-09 03:19 41.95818 -81.40857 8884 ft 266 kts 159°
2026-05-09 03:20 41.94163 -81.39763 8579 ft 265 kts 159°
2026-05-09 03:20 41.92507 -81.38713 8259 ft 261 kts 165°
2026-05-09 03:20 41.90802 -81.38525 7953 ft 244 kts 198°
2026-05-09 03:20 41.89267 -81.39463 7595 ft 238 kts 217°
2026-05-09 03:21 41.87899 -81.40664 7263 ft 239 kts 216°
2026-05-09 03:21 41.86506 -81.41858 7019 ft 235 kts 216°
2026-05-09 03:21 41.85134 -81.43029 6679 ft 236 kts 216°
2026-05-09 03:21 41.83745 -81.44208 6359 ft 235 kts 216°
2026-05-09 03:22 41.82366 -81.45378 6053 ft 234 kts 216°
2026-05-09 03:22 41.80993 -81.46542 5723 ft 234 kts 216°
2026-05-09 03:22 41.79609 -81.47713 5284 ft 238 kts 216°
2026-05-09 03:22 41.78218 -81.48889 5002 ft 235 kts 216°
2026-05-09 03:23 41.76834 -81.50060 4650 ft 236 kts 216°
2026-05-09 03:23 41.75457 -81.51223 4324 ft 235 kts 216°
2026-05-09 03:23 41.74084 -81.52382 4077 ft 231 kts 216°
2026-05-09 03:23 41.72676 -81.53424 4014 ft 233 kts 210°
2026-05-09 03:24 41.71199 -81.54331 3667 ft 234 kts 210°
2026-05-09 03:24 41.69755 -81.55312 3403 ft 232 kts 211°
2026-05-09 03:24 41.68329 -81.56292 3121 ft 229 kts 211°
2026-05-09 03:24 41.66914 -81.57257 2994 ft 229 kts 211°
2026-05-09 03:25 41.65483 -81.58211 3000 ft 230 kts 211°
2026-05-09 03:25 41.64067 -81.59183 2992 ft 229 kts 212°
2026-05-09 03:25 41.62642 -81.60141 3007 ft 230 kts 210°
2026-05-09 03:25 41.61182 -81.61028 2996 ft 231 kts 210°
2026-05-09 03:26 41.59718 -81.61912 2997 ft 230 kts 210°
2026-05-09 03:26 41.58297 -81.62878 2990 ft 228 kts 215°
2026-05-09 03:26 41.56920 -81.63933 2992 ft 228 kts 214°
2026-05-09 03:26 41.55561 -81.64915 2997 ft 216 kts 213°
2026-05-09 03:27 41.54261 -81.65799 3010 ft 204 kts 211°
2026-05-09 03:27 41.53107 -81.66806 2991 ft 197 kts 225°
2026-05-09 03:27 41.52147 -81.68106 2999 ft 197 kts 231°
2026-05-09 03:27 41.51267 -81.69462 3046 ft 192 kts 232°
2026-05-09 03:28 41.50453 -81.70745 3049 ft 172 kts 233°
2026-05-09 03:28 41.49724 -81.71903 3012 ft 155 kts 234°
2026-05-09 03:28 41.49049 -81.72976 2984 ft 147 kts 234°
2026-05-09 03:28 41.48402 -81.74007 2852 ft 144 kts 234°
2026-05-09 03:29 41.47760 -81.75028 2686 ft 143 kts 234°
2026-05-09 03:29 41.47125 -81.76036 2510 ft 140 kts 233°
2026-05-09 03:29 41.46509 -81.77014 2358 ft 136 kts 233°
2026-05-09 03:29 41.45903 -81.77978 2171 ft 135 kts 233°
2026-05-09 03:30 41.45330 -81.78887 1984 ft 118 kts 232°
2026-05-09 03:30 41.44822 -81.79696 1851 ft 112 kts 232°
2026-05-09 03:30 41.44333 -81.80475 1641 ft 111 kts 230°
2026-05-09 03:30 41.43818 -81.81291 1473 ft 119 kts 229°
2026-05-09 03:31 41.43276 -81.82140 1308 ft 122 kts 228°
2026-05-09 03:31 41.42716 -81.83028 1149 ft 130 kts 227°
2026-05-09 03:31 41.42148 -81.83942 1011 ft 125 kts 229°
2026-05-09 03:31 41.41593 -81.84818 836 ft 122 kts 227°
2026-05-09 03:32 41.41115 -81.85559 792 ft 76 kts 229°
2026-05-09 03:32 41.40852 -81.85981 789 ft 52 kts 229°
2026-05-09 03:32 41.40639 -81.86248 785 ft 37 kts 199°
2026-05-09 03:32 41.40507 -81.86186 783 ft 15 kts 139°